�������l�o���
Date,Time,MP-1(��Sv/h),MP-2(��Sv/h),MP-3(��Sv/h),MP-4(��Sv/h),MP-5(��Sv/h),MP-6(��Sv/h),MP-7(��Sv/h),MP-8(��Sv/h),����,����(m/s),���J
2020/03/20,00:00,0.702,1.009,0.674,1.219,0.879,0.406,0.702,0.666,��,9.4,��
2020/03/20,00:10,0.703,1.009,0.673,1.220,0.878,0.405,0.702,0.665,��,9.5,�L
2020/03/20,00:20,0.705,1.010,0.672,1.222,0.881,0.407,0.701,0.666,��,11.1,�L
2020/03/20,00:30,0.704,1.007,0.672,1.220,0.879,0.407,0.701,0.667,��,10.6,�L
2020/03/20,00:40,0.704,1.007,0.672,1.221,0.879,0.406,0.702,0.666,��,10.5,�L
2020/03/20,00:50,0.706,1.011,0.672,1.222,0.877,0.408,0.702,0.666,��,11.0,�L
2020/03/20,01:00,0.703,1.009,0.672,1.221,0.877,0.406,0.701,0.666,��,11.6,�L
2020/03/20,01:10,0.705,1.007,0.673,1.221,0.875,0.407,0.702,0.666,��,11.6,��
2020/03/20,01:20,0.704,1.008,0.673,1.221,0.877,0.406,0.701,0.665,��,12.2,�L
2020/03/20,01:30,0.704,1.007,0.673,1.219,0.878,0.408,0.700,0.665,��,11.3,�L
2020/03/20,01:40,0.705,1.011,0.673,1.220,0.877,0.407,0.701,0.666,��,9.8,�L
2020/03/20,01:50,0.705,1.010,0.672,1.220,0.877,0.407,0.702,0.667,��쐼,7.9,��
2020/03/20,02:00,0.706,1.008,0.673,1.221,0.876,0.407,0.700,0.666,��,9.2,��
2020/03/20,02:10,0.704,1.010,0.674,1.221,0.878,0.407,0.702,0.665,��쐼,9.7,��
2020/03/20,02:20,0.703,1.009,0.673,1.219,0.878,0.408,0.701,0.665,��쐼,9.0,��
2020/03/20,02:30,0.704,1.009,0.672,1.222,0.877,0.406,0.702,0.666,��,10.9,��
2020/03/20,02:40,0.705,1.006,0.674,1.222,0.877,0.407,0.703,0.665,��,10.3,��
2020/03/20,02:50,0.706,1.009,0.672,1.219,0.879,0.408,0.701,0.666,��,9.4,��
2020/03/20,03:00,0.707,1.009,0.673,1.221,0.878,0.408,0.704,0.666,��,8.8,��
2020/03/20,03:10,0.703,1.006,0.674,1.220,0.878,0.407,0.702,0.664,��,7.9,��
2020/03/20,03:20,0.704,1.006,0.673,1.223,0.877,0.408,0.702,0.666,��쐼,4.9,��
2020/03/20,03:30,0.705,1.006,0.673,1.221,0.877,0.408,0.702,0.665,�쐼,4.7,��
2020/03/20,03:40,0.705,1.007,0.673,1.219,0.878,0.409,0.703,0.665,��,2.3,��
2020/03/20,03:50,0.703,1.008,0.671,1.221,0.879,0.408,0.705,0.666,��,4.3,�L
2020/03/20,04:00,0.705,1.005,0.672,1.220,0.879,0.407,0.704,0.665,��,6.7,��
2020/03/20,04:10,0.706,1.006,0.673,1.220,0.880,0.406,0.703,0.666,���k��,11.8,��
2020/03/20,04:20,0.704,1.007,0.674,1.220,0.879,0.406,0.703,0.664,���k��,10.9,��
2020/03/20,04:30,0.703,1.008,0.671,1.220,0.879,0.405,0.701,0.666,���k��,10.5,��
2020/03/20,04:40,0.704,1.008,0.672,1.220,0.878,0.404,0.703,0.666,��,8.5,��
2020/03/20,04:50,0.702,1.006,0.673,1.220,0.878,0.403,0.700,0.664,���k��,12.5,��
2020/03/20,05:00,0.704,1.007,0.671,1.221,0.878,0.405,0.701,0.664,���k��,10.5,��
2020/03/20,05:10,0.705,1.008,0.674,1.220,0.880,0.406,0.697,0.664,���k��,11.4,��
2020/03/20,05:20,0.704,1.009,0.672,1.221,0.880,0.406,0.700,0.664,���k��,13.5,��
2020/03/20,05:30,0.704,1.008,0.672,1.222,0.878,0.404,0.701,0.664,���k��,11.8,��
2020/03/20,05:40,0.702,1.008,0.670,1.223,0.879,0.405,0.699,0.664,���k��,10.2,��
2020/03/20,05:50,0.703,1.007,0.672,1.222,0.878,0.406,0.699,0.663,���k��,9.4,��
2020/03/20,06:00,0.702,1.009,0.671,1.220,0.878,0.406,0.700,0.664,���k��,10.3,�L
2020/03/20,06:10,0.701,1.007,0.673,1.224,0.878,0.405,0.697,0.662,���k��,11.0,��
2020/03/20,06:20,0.701,1.008,0.671,1.223,0.880,0.404,0.700,0.663,���k��,10.2,�L
2020/03/20,06:30,0.701,1.010,0.674,1.225,0.881,0.406,0.701,0.665,��,12.0,�L
2020/03/20,06:40,0.703,1.011,0.673,1.225,0.881,0.406,0.702,0.666,���k��,11.8,�L
2020/03/20,06:50,0.702,1.008,0.674,1.225,0.879,0.408,0.702,0.665,���k��,19.3,�L
2020/03/20,07:00,0.703,1.006,0.671,1.223,0.880,0.406,0.701,0.665,��,12.4,�L
2020/03/20,07:10,0.703,1.009,0.674,1.222,0.880,0.405,0.701,0.665,���k��,16.1,�L
2020/03/20,07:20,0.703,1.008,0.673,1.223,0.882,0.406,0.700,0.665,-,CALM,�L
2020/03/20,07:30,0.702,1.009,0.673,1.223,0.880,0.404,0.701,0.665,��,15.3,��
2020/03/20,07:40,0.704,1.009,0.674,1.228,0.879,0.404,0.701,0.664,��,16.9,��
2020/03/20,07:50,0.703,1.009,0.673,1.225,0.880,0.405,0.702,0.666,��,15.2,��
2020/03/20,08:00,0.703,1.009,0.672,1.224,0.880,0.405,0.700,0.666,��,10.2,��
2020/03/20,08:10,0.705,1.006,0.673,1.225,0.882,0.404,0.700,0.665,-,CALM,��
2020/03/20,08:20,0.703,1.010,0.674,1.226,0.881,0.405,0.701,0.666,���k��,15.3,��
2020/03/20,08:30,0.702,1.008,0.671,1.226,0.880,0.405,0.701,0.667,��,16.3,��
2020/03/20,08:40,0.703,1.009,0.673,1.225,0.880,0.405,0.701,0.666,��,12.0,��
2020/03/20,08:50,0.703,1.007,0.671,1.225,0.878,0.404,0.700,0.665,���쐼,11.0,��
2020/03/20,09:00,0.704,1.009,0.671,1.225,0.880,0.404,0.700,0.666,��,12.7,��
2020/03/20,09:10,0.704,1.011,0.673,1.224,0.878,0.405,0.700,0.668,��,13.6,��
2020/03/20,09:20,0.703,1.010,0.672,1.227,0.879,0.406,0.700,0.667,��,11.6,��
2020/03/20,09:30,0.703,1.011,0.673,1.225,0.881,0.405,0.702,0.666,���k��,15.0,��
2020/03/20,09:40,0.704,1.011,0.673,1.226,0.882,0.405,0.700,0.666,���쐼,12.8,��
2020/03/20,09:50,0.704,1.009,0.672,1.227,0.880,0.403,0.702,0.667,��,15.3,��
2020/03/20,10:00,0.704,1.010,0.674,1.227,0.882,0.405,0.702,0.666,��,17.2,��
2020/03/20,10:10,0.707,1.015,0.674,1.224,0.880,0.405,0.701,0.668,��,16.6,��
2020/03/20,10:20,0.705,1.013,0.673,1.227,0.882,0.406,0.702,0.666,��,16.1,��
2020/03/20,10:30,0.704,1.013,0.673,1.227,0.882,0.406,0.701,0.665,��,14.6,��
2020/03/20,10:40,0.703,1.010,0.674,1.226,0.880,0.404,0.703,0.664,-,CALM,��
2020/03/20,10:50,0.705,1.011,0.674,1.226,0.883,0.405,0.703,0.665,��,14.2,��
2020/03/20,11:00,0.703,1.010,0.671,1.226,0.879,0.404,0.702,0.664,��,10.0,��
2020/03/20,11:10,0.702,1.010,0.673,1.227,0.880,0.402,0.701,0.664,���k��,7.2,��
2020/03/20,11:20,0.703,1.010,0.672,1.226,0.880,0.403,0.702,0.665,���k��,14.2,��
2020/03/20,11:30,0.703,1.011,0.672,1.226,0.879,0.403,0.700,0.663,���k��,9.7,��
2020/03/20,11:40,0.703,1.010,0.674,1.227,0.880,0.403,0.701,0.664,�k��,6.9,��
2020/03/20,11:50,0.704,1.009,0.671,1.227,0.882,0.403,0.702,0.663,���k��,8.6,��
2020/03/20,12:00,0.704,1.012,0.673,1.230,0.879,0.403,0.703,0.662,���k��,5.3,��
2020/03/20,12:10,0.703,1.010,0.675,1.227,0.881,0.405,0.702,0.662,�k��,5.8,��
2020/03/20,12:20,0.703,1.009,0.673,1.230,0.881,0.403,0.702,0.664,���k��,5.6,��
2020/03/20,12:30,0.705,1.010,0.672,1.228,0.880,0.404,0.700,0.665,��,7.9,��
2020/03/20,12:40,0.702,1.011,0.670,1.226,0.881,0.404,0.702,0.665,���k��,9.3,��
2020/03/20,12:50,0.703,1.010,0.670,1.230,0.881,0.403,0.702,0.664,���k��,11.6,��
2020/03/20,13:00,0.702,1.012,0.671,1.230,0.881,0.404,0.701,0.663,��,8.9,��
2020/03/20,13:10,0.702,1.012,0.671,1.229,0.884,0.404,0.702,0.665,��,11.3,��
2020/03/20,13:20,0.702,1.012,0.670,1.228,0.881,0.405,0.703,0.664,���k��,15.8,��
2020/03/20,13:30,0.703,1.010,0.670,1.231,0.882,0.404,0.701,0.663,��,13.0,��
2020/03/20,13:40,0.704,1.010,0.672,1.229,0.882,0.404,0.702,0.664,���k��,14.4,��
2020/03/20,13:50,0.704,1.011,0.670,1.229,0.883,0.403,0.702,0.663,��,12.4,�L
2020/03/20,14:00,0.703,1.012,0.669,1.228,0.883,0.402,0.702,0.664,��,10.3,�L
2020/03/20,14:10,0.702,1.012,0.672,1.230,0.881,0.402,0.701,0.663,��,10.2,��
2020/03/20,14:20,0.703,1.010,0.672,1.230,0.883,0.404,0.702,0.664,���k��,11.6,��
2020/03/20,14:30,0.701,1.012,0.670,1.229,0.883,0.403,0.702,0.664,���k��,13.0,��
2020/03/20,14:40,0.704,1.012,0.671,1.232,0.883,0.403,0.700,0.663,��,14.1,�L
2020/03/20,14:50,0.701,1.011,0.672,1.229,0.883,0.403,0.700,0.664,��,15.5,�L
2020/03/20,15:00,0.701,1.010,0.670,1.229,0.883,0.406,0.700,0.664,��,13.1,��
2020/03/20,15:10,0.704,1.012,0.673,1.229,0.883,0.406,0.700,0.663,��,11.6,��
2020/03/20,15:20,0.703,1.013,0.673,1.231,0.882,0.404,0.701,0.663,���k��,11.9,��
2020/03/20,15:30,0.702,1.013,0.672,1.230,0.885,0.405,0.700,0.664,���k��,14.6,��
2020/03/20,15:40,0.701,1.012,0.673,1.228,0.884,0.403,0.701,0.664,���k��,16.3,��
2020/03/20,15:50,0.701,1.014,0.669,1.232,0.884,0.405,0.702,0.664,���k��,14.1,��
2020/03/20,16:00,0.702,1.013,0.675,1.232,0.884,0.404,0.701,0.663,���k��,13.8,��
2020/03/20,16:10,0.702,1.013,0.675,1.230,0.884,0.405,0.701,0.664,���k��,14.1,��
2020/03/20,16:20,0.703,1.015,0.674,1.231,0.883,0.404,0.699,0.665,���k��,13.5,��
2020/03/20,16:30,0.704,1.015,0.673,1.231,0.882,0.404,0.701,0.666,���k��,16.9,��
2020/03/20,16:40,0.703,1.015,0.675,1.232,0.884,0.405,0.701,0.665,���k��,12.4,��
2020/03/20,16:50,0.703,1.016,0.673,1.232,0.883,0.405,0.701,0.666,���k��,11.3,��
2020/03/20,17:00,0.703,1.016,0.673,1.231,0.884,0.404,0.701,0.668,���k��,10.0,��
2020/03/20,17:10,0.704,1.017,0.673,1.233,0.884,0.404,0.702,0.666,���k��,13.3,��
2020/03/20,17:20,0.702,1.018,0.675,1.232,0.882,0.404,0.701,0.666,���k��,12.5,��
2020/03/20,17:30,0.703,1.016,0.672,1.229,0.883,0.405,0.701,0.665,���k��,13.8,��
2020/03/20,17:40,0.705,1.017,0.674,1.232,0.884,0.405,0.701,0.667,���k��,13.8,��
2020/03/20,17:50,0.707,1.017,0.673,1.232,0.883,0.404,0.702,0.666,���k��,14.1,��
2020/03/20,18:00,0.707,1.016,0.673,1.233,0.883,0.404,0.702,0.666,���k��,11.1,��
2020/03/20,18:10,0.706,1.017,0.674,1.232,0.884,0.402,0.701,0.666,���k��,11.3,��
2020/03/20,18:20,0.705,1.013,0.674,1.232,0.884,0.404,0.701,0.667,���k��,9.7,��
2020/03/20,18:30,0.705,1.016,0.674,1.233,0.886,0.403,0.703,0.665,��,9.4,��
2020/03/20,18:40,0.705,1.016,0.672,1.232,0.887,0.404,0.701,0.667,��,7.6,��
2020/03/20,18:50,0.705,1.016,0.674,1.231,0.885,0.403,0.701,0.667,��,6.9,��
2020/03/20,19:00,0.704,1.016,0.672,1.234,0.887,0.402,0.702,0.665,���k��,8.5,��
2020/03/20,19:10,0.705,1.015,0.673,1.231,0.888,0.404,0.702,0.667,�k��,7.7,��
2020/03/20,19:20,0.705,1.016,0.673,1.232,0.888,0.403,0.703,0.666,���k��,6.3,��
2020/03/20,19:30,0.706,1.016,0.674,1.233,0.886,0.404,0.703,0.666,���k��,3.3,��
2020/03/20,19:40,0.704,1.018,0.673,1.231,0.885,0.403,0.703,0.667,��,4.8,��
2020/03/20,19:50,0.703,1.016,0.674,1.234,0.884,0.404,0.702,0.667,��,5.5,��
2020/03/20,20:00,0.703,1.014,0.675,1.232,0.884,0.403,0.701,0.665,�k��,2.8,��
2020/03/20,20:10,0.706,1.017,0.673,1.232,0.885,0.403,0.701,0.665,��,2.6,��
2020/03/20,20:20,0.703,1.016,0.675,1.235,0.886,0.402,0.703,0.667,��,3.5,��
2020/03/20,20:30,0.706,1.015,0.674,1.233,0.884,0.404,0.702,0.667,���쐼,3.3,��
2020/03/20,20:40,0.704,1.013,0.675,1.231,0.886,0.403,0.703,0.667,�쐼,3.1,��
2020/03/20,20:50,0.704,1.014,0.672,1.234,0.886,0.402,0.703,0.666,��,5.1,��
2020/03/20,21:00,0.705,1.014,0.673,1.233,0.886,0.403,0.702,0.665,��,6.1,��
2020/03/20,21:10,0.704,1.014,0.673,1.232,0.886,0.403,0.702,0.666,��,5.6,��
2020/03/20,21:20,0.704,1.015,0.673,1.240,0.884,0.402,0.704,0.666,��,5.9,��
2020/03/20,21:30,0.704,1.015,0.672,1.233,0.883,0.403,0.702,0.665,���쐼,5.8,��
2020/03/20,21:40,0.704,1.016,0.673,1.234,0.885,0.403,0.704,0.665,���쐼,6.8,��
2020/03/20,21:50,0.704,1.013,0.675,1.230,0.885,0.403,0.702,0.665,���쐼,5.8,��
2020/03/20,22:00,0.703,1.014,0.673,1.234,0.886,0.404,0.702,0.665,��,7.0,��
2020/03/20,22:10,0.703,1.015,0.673,1.229,0.886,0.402,0.702,0.666,��,3.1,��
2020/03/20,22:20,0.704,1.010,0.673,1.235,0.884,0.403,0.702,0.666,���쐼,3.9,��
2020/03/20,22:30,0.703,1.015,0.674,1.233,0.885,0.402,0.703,0.666,��,5.6,��
2020/03/20,22:40,0.704,1.015,0.674,1.231,0.886,0.403,0.703,0.666,��,5.3,��
2020/03/20,22:50,0.703,1.014,0.674,1.231,0.885,0.404,0.702,0.663,��,2.6,��
2020/03/20,23:00,0.703,1.014,0.672,1.232,0.886,0.405,0.702,0.664,��,4.4,��
2020/03/20,23:10,0.703,1.014,0.673,1.231,0.886,0.404,0.703,0.666,���쐼,3.5,��
2020/03/20,23:20,0.704,1.013,0.675,1.232,0.885,0.403,0.703,0.667,���쐼,5.1,��
2020/03/20,23:30,0.704,1.013,0.671,1.232,0.887,0.404,0.701,0.665,��,5.1,��
2020/03/20,23:40,0.704,1.015,0.674,1.232,0.883,0.403,0.705,0.665,��,7.2,��
2020/03/20,23:50,0.703,1.014,0.672,1.233,0.885,0.404,0.702,0.666,���쐼,4.7,��
